Home > Weather > Al Khor > Past weeks

Flag for Qatar Weather for the Past 2 Weeks in Al Khor, Qatar

Now
68 °F

Passing clouds.


Feels Like: 68 °F
Forecast: 60 / 69 °F
Wind: 16 mph from Northwest

Location: Doha International Airport

Current Time: Feb 12, 2016 at 3:53:01 PM

Latest Report: Feb 12, 2016 at 3:00 PM


Visibility: N/A

Pressure: 30.07 "Hg

Humidity: 40%

Dew point: 43 °F

Location of Al KhorLocation

Historic Weather in Al Khor — Graph

°F

Al Khor Temperature Yesterday

Maximum temperature yesterday: 72 °F (at 12:00 PM)
Minimum temperature yesterday: 59 °F (at 3:00 AM)
Average temperature yesterday: 65 °F

High & Low Weather Summary for the Past Weeks

 TemperatureHumidityPressure
High82 °F (Feb 8, 2:00 PM)94% (Feb 6, 6:30 AM)30.33 "Hg (Feb 6, 6:30 AM)
Low50 °F (Jan 30, 5:00 AM)9% (Feb 8, 1:30 PM)29.95 "Hg (Feb 7, 3:00 PM)
Average63 °F53%30.14 "Hg
* Reported Jan 28 2:30 PM — Feb 12 2:30 PM, Al Khor, Weather by CustomWeather, © 2016

Note: Actual official high and low records may vary slightly from our data, if they occured in-between our weather recording intervals... More about our weather records

Advertising

Al Khor Weather History for the Previous 24 Hours

 ConditionsComfort  
Time TempWeatherWind HumidityBarometerVisibility
2:30 PM
Fri, Feb 12
68 °FPassing clouds.16 mph40%30.07 "HgN/A
2:00 PM68 °FPassing clouds.16 mph40%30.07 "HgN/A
1:00 PM70 °FScattered clouds.16 mph40%30.09 "HgN/A
12:00 PM68 °FScattered clouds.15 mph46%30.09 "HgN/A
11:00 AM68 °FPassing clouds.15 mph46%30.12 "HgN/A
10:00 AM66 °FPassing clouds.12 mph46%30.15 "HgN/A
9:30 AM64 °FPassing clouds.12 mph52%30.15 "HgN/A
9:00 AM63 °FPassing clouds.12 mph59%30.15 "HgN/A
8:00 AM63 °FSunny.12 mph59%30.15 "Hg10 mi
7:00 AM61 °FSunny.12 mph63%30.12 "Hg10 mi
6:30 AM61 °FSunny.9 mph59%30.12 "Hg10 mi
6:00 AM61 °FPassing clouds.10 mph59%30.09 "HgN/A
5:30 AM61 °FPassing clouds.10 mph59%30.09 "HgN/A
5:00 AM63 °FPassing clouds.12 mph56%30.07 "HgN/A
4:30 AM63 °FPassing clouds.12 mph52%30.07 "HgN/A
4:00 AM63 °FPassing clouds.15 mph52%30.07 "HgN/A
3:00 AM63 °FClear.16 mph52%30.07 "Hg10 mi
2:00 AM63 °FClear.13 mph59%30.07 "Hg10 mi
12:00 AM64 °FClear.16 mph56%30.07 "Hg10 mi
11:00 PM
Thu, Feb 11
64 °FPassing clouds.16 mph60%30.07 "HgN/A
10:30 PM64 °FPassing clouds.14 mph60%30.07 "HgN/A
10:00 PM64 °FPassing clouds.13 mph64%30.07 "HgN/A
9:00 PM64 °FClear.13 mph60%30.07 "Hg10 mi
7:00 PM66 °FClear.13 mph68%30.04 "Hg10 mi
6:30 PM66 °FClear.9 mph64%30.01 "Hg10 mi
6:00 PM66 °FClear.8 mph64%29.98 "Hg10 mi
5:00 PM68 °FSunny.9 mph43%29.95 "Hg10 mi
4:00 PM70 °FSunny.10 mph50%29.95 "Hg10 mi
3:00 PM70 °FSunny.12 mph43%29.95 "Hg10 mi
Weather by CustomWeather, © 2016

See weather overviewHow to use our weather pages